Skip Page Navigation
NASA JPL Caltech
NASA Logo - Jet Propulsion Laboratory + View the NASA Portal
+ Center for Near-Earth Object Studies
JPL Home Earth Solar System Stars & Galaxies Technology
JPL Solar System Dynamics
BODIES ORBITS EPHEMERIDES TOOLS PHYSICAL DATA DISCOVERY FAQ SITE MAP
JPL Small-Body Database Browser
Search: [ help ]  
160307 (2003 GA6)
Classification: Main-belt Asteroid          SPK-ID: 2160307
Ephemeris | Orbit Diagram | Orbital Elements | Mission Design | Physical Parameters | Discovery Circumstances | Close-Approach Data ]

[ show orbit diagram ]
Orbital Elements at Epoch 2459200.5 (2020-Dec-17.0) TDB
Reference: JPL 17 (heliocentric ecliptic J2000)
 Element Value Uncertainty (1-sigma)   Units 
e .1624472857022865 4.108e-08  
a 2.353931886775011 1.0953e-08 au
q 1.971542041040348 9.651e-08 au
i 3.298918692609691 4.5658e-06 deg
node 63.10040629966365 8.4126e-05 deg
peri 191.1459835051413 8.5608e-05 deg
M 289.7687586457221 1.5875e-05 deg
tp 2459457.845814246993
(2021-Aug-31.34581425)
5.8879e-05 TDB
period 1319.135065000165
3.61
9.207e-06
2.521e-08
d
yr
n .2729060954800372 1.9048e-09 deg/d
Q 2.736321732509673 1.2732e-08 au
  Orbit Determination Parameters
   # obs. used (total)      452  
   data-arc span      7485 days (20.49 yr)  
   first obs. used      2000-08-29  
   last obs. used      2021-02-25  
   planetary ephem.      DE441  
   SB-pert. ephem.      SB441-N16  
   condition code      0  
   norm. resid. RMS      .60458  
   source      ORB  
   producer      Otto Matic  
   solution date      2021-Apr-13 20:00:49  

Additional Information
 Earth MOID = .955403 au 
 Jupiter MOID = 2.30513 au 
 T_jup = 3.536 
[ show covariance matrix ]

Ephemeris | Orbit Diagram | Orbital Elements | Mission Design | Physical Parameters | Discovery Circumstances | Close-Approach Data ]

Physical Parameter Table
Parameter Symbol Value Units Sigma Reference Notes
absolute magnitude H 16.4   n/a MPO454060  

160307 (2003 GA6)          Discovered 2003-Apr-01 by LINEAR at Socorro
Reference: 20070730/Numbers.arcLast Updated: 2007-08-06

[ show close-approach data ]
Ephemeris | Orbit Diagram | Orbital Elements | Mission Design | Physical Parameters | Discovery Circumstances | Close-Approach Data ]
ABOUT SSD CREDITS/AWARDS PRIVACY/COPYRIGHT GLOSSARY LINKS
FirstGov 2021-Apr-21 09:28 UT
(server date/time)  
NASA Home Page
Site Manager:   Ryan S. Park
Webmaster  Alan B. Chamberlin